This is the latest recevied weather packets stored in our database for station/object W5DRO-13. If no packets are shown the sender has not sent any weather packets the latest 10 day(s).
| Time | Temp. | Humidity | Pressure | Rain* | Wind** | Luminosity | Snow |
|---|---|---|---|---|---|---|---|
| 1776986373 | 26.67° C | 66% | 1002.5 hPa | 0 mm | - | - | - |
| 1776986070 | 26.67° C | 65% | 1002.6 hPa | 0 mm | - | - | - |
| 1776985766 | 27.22° C | 65% | 1002.9 hPa | 0 mm | - | - | - |
| 1776985463 | 27.22° C | 65% | 1002.5 hPa | 0 mm | - | - | - |
| 1776985159 | 27.22° C | 65% | 1003 hPa | 0 mm | - | - | - |
| 1776984855 | 27.78° C | 64% | 1002.7 hPa | 0 mm | - | - | - |
| 1776984552 | 27.78° C | 63% | 1002.7 hPa | 0 mm | - | - | - |
| 1776984247 | 27.78° C | 63% | 1002.9 hPa | 0 mm | - | - | - |
| 1776983943 | 27.78° C | 62% | 1003 hPa | 0 mm | - | - | - |
| 1776983639 | 27.78° C | 63% | 1003 hPa | 0 mm | - | - | - |
| 1776983335 | 27.78° C | 63% | 1002.9 hPa | 0 mm | - | - | - |
| 1776983032 | 27.78° C | 62% | 1003 hPa | 0 mm | - | - | - |
| 1776982730 | 27.78° C | 61% | 1002.9 hPa | 0 mm | - | - | - |
| 1776982427 | 28.89° C | 60% | 1003.2 hPa | 0 mm | - | - | - |
| 1776982126 | 28.89° C | 60% | 1003 hPa | 0 mm | - | - | - |
| 1776981826 | 28.89° C | 61% | 1003 hPa | 0 mm | - | - | - |
| 1776981523 | 28.89° C | 60% | 1003.1 hPa | 0 mm | - | - | - |
| 1776981218 | 28.33° C | 61% | 1003.1 hPa | 0 mm | - | - | - |
| 1776980913 | 28.89° C | 60% | 1003.2 hPa | 0 mm | - | - | - |
| 1776980612 | 28.89° C | 60% | 1003.2 hPa | 0 mm | - | - | - |
| 1776980307 | 28.33° C | 61% | 1003.4 hPa | 0 mm | - | - | - |
| 1776980003 | 28.33° C | 62% | 1003.3 hPa | 0 mm | - | - | - |
| 1776979699 | 28.33° C | 61% | 1003.4 hPa | 0 mm | - | - | - |
| 1776979396 | 28.89° C | 60% | 1003.2 hPa | 0 mm | - | - | - |
| 1776979092 | 29.44° C | 59% | 1003.5 hPa | 0 mm | - | - | - |
* Rain latest hour (hover to see other rain measurements)
** Current wind speed in m/s (hover to see current wind gust speed)